Notices

What's New in latest Release from April 7th, 2021:

- Updated Glossary, including Speed of Maximum Gust, and Total Hourly Precipitation

- Updated national and regional climate services offices contacts and prices information

- Addition of station inventory lists for 1981-2010, 1971-2000, and 1961-1990 Normals.

If you haven't already, please take our survey and provide feedback about our website: https://eccc.sondage-survey.ca/f/LanguageSelection.aspx?s=442ca660-fcf1-47c0-95a9-59707d6fd709

Hourly Data Report for August 29, 2018

TORONTO CITY
ONTARIO
Current Station Operator: ECCC - MSC

43°40'00.000" N
79°24'00.000" W
112.50 m
6158355
71508
XTO

Download Data

Hourly Data (August 2018)
Hourly Data Report for August 29, 2018
TIME
LST
Temp Definition
°C
Dew Point Definition
°C
Rel Hum Definition
%
Precip. Amount Definition
mm

Wind Dir Definition
10's deg

Wind Spd Definition
km/h
Visibility Definition
km
Stn Press Definition
kPa
Hmdx Definition


Wind Chill Definition


Weather Definition


00:00 25.0 21.2 79 0.0 LegendMM LegendMM   99.97 34   LegendNANA
01:00 24.6 20.8 79 0.0 LegendMM LegendMM   99.92 33   LegendNANA
02:00 23.8 19.8 78 0.0 LegendMM LegendMM   99.94 31   LegendNANA
03:00 23.6 19.8 79 0.0 LegendMM LegendMM   99.93 31   LegendNANA
04:00 23.8 18.6 73 0.0 LegendMM LegendMM   99.85 30   LegendNANA
05:00 23.2 18.7 76 0.0 LegendMM LegendMM   99.80 30   LegendNANA
06:00 23.0 18.7 77 0.0 LegendMM LegendMM   99.82 30   LegendNANA
07:00 23.6 19.3 77 0.0 LegendMM LegendMM   99.79 31   LegendNANA
08:00 24.4 20.0 76 0.0 LegendMM LegendMM   99.76 32   LegendNANA
09:00 26.8 21.3 72 0.0 LegendMM LegendMM   99.79 35   LegendNANA
10:00 27.8 19.3 60 0.0 LegendMM LegendMM   99.84 35   LegendNANA
11:00 27.9 18.6 57 0.0 LegendMM LegendMM   99.86 34   LegendNANA
12:00 28.1 16.6 50 0.0 LegendMM LegendMM   99.84 33   LegendNANA
13:00 28.9 17.8 51 0.0 LegendMM LegendMM   99.84 35   LegendNANA
14:00 28.1 17.1 51 0.0 LegendMM LegendMM   99.85 33   LegendNANA
15:00 27.5 17.7 55 0.0 LegendMM LegendMM   99.84 33   LegendNANA
16:00 28.0 17.2 52 0.0 LegendMM LegendMM   99.79 33   LegendNANA
17:00 27.7 17.2 53 0.0 LegendMM LegendMM   99.81 33   LegendNANA
18:00 27.3 17.5 55 0.0 LegendMM LegendMM   99.87 33   LegendNANA
19:00 24.4 18.3 69 0.0 LegendMM LegendMM   99.95 31   LegendNANA
20:00 23.8 18.5 72 0.0 LegendMM LegendMM   100.02 30   LegendNANA
21:00 23.8 17.4 67 0.0 LegendMM LegendMM   100.12 29   LegendNANA
22:00 22.0 17.1 74 0.0 LegendMM LegendMM   100.23 27   LegendNANA
23:00 20.9 14.9 69 0.0 LegendMM LegendMM   100.29 25   LegendNANA

Notes on Data Quality.

Legend

  • E = Estimated
  • M = Missing
  • NA = Not Available*
  • [empty] = Indicates an unobserved value
Date modified: